EJU93QT EDDH-LIMC

Flight info

Callsign EJU93QT
Flight time 1h 21m
Altitude 37000
Route AMLUH2D AMLUH M852 DENIX DCT ZUCKA DCT AMOSA/N0443F360 DCT DKB DCT TEDGO DCT SONOM/N0434F370 DCT GERSA DCT SOSON DCT DEGAD DCT BASGO/N0398F290 Z424 AKASU/N0336F190 Z424 RIXUV
Aircraft A319/M-SDE2E3FGIJ1RWXYZ/LB1

Departure

Time 2026-02-17 10:54
Airport Hamburg Helmut Schmidt Airport (EDDH)

Arrival

Time 2026-02-17 12:15
Airport Milan Malpensa International Airport (LIMC)
Time Latitude Longitude Altitude Speed Heading
2026-02-17 10:26 53.62684 10.00347 51 ft 0 kts 63°
2026-02-17 10:45 53.62682 10.00340 50 ft 2 kts 60°
2026-02-17 10:45 53.62671 10.00316 50 ft 3 kts 25°
2026-02-17 10:45 53.62653 10.00310 50 ft 3 kts 359°
2026-02-17 10:46 53.62635 10.00308 50 ft 3 kts 34°
2026-02-17 10:46 53.62626 10.00287 50 ft 3 kts 51°
2026-02-17 10:46 53.62614 10.00272 48 ft 3 kts 353°
2026-02-17 10:47 53.62604 10.00276 50 ft 3 kts 336°
2026-02-17 10:47 53.62621 10.00265 49 ft 2 kts 335°
2026-02-17 10:47 53.62626 10.00261 48 ft 0 kts 333°
2026-02-17 10:50 53.62628 10.00259 50 ft 2 kts 333°
2026-02-17 10:50 53.62650 10.00240 50 ft 5 kts 333°
2026-02-17 10:51 53.62756 10.00151 50 ft 12 kts 333°
2026-02-17 10:51 53.62836 10.00080 50 ft 15 kts 332°
2026-02-17 10:51 53.62943 10.00002 50 ft 19 kts 332°
2026-02-17 10:51 53.63071 9.99894 50 ft 21 kts 333°
2026-02-17 10:52 53.63195 9.99787 50 ft 18 kts 333°
2026-02-17 10:52 53.63277 9.99658 50 ft 16 kts 282°
2026-02-17 10:52 53.63298 9.99475 50 ft 15 kts 291°
2026-02-17 10:52 53.63300 9.99353 51 ft 4 kts 231°
2026-02-17 10:53 53.63299 9.99351 51 ft 0 kts 230°
2026-02-17 10:53 53.63247 9.99246 53 ft 47 kts 230°
2026-02-17 10:53 53.62842 9.98429 51 ft 132 kts 230°
2026-02-17 10:54 53.62170 9.97098 577 ft 153 kts 226°
2026-02-17 10:54 53.61484 9.95698 1482 ft 156 kts 233°
2026-02-17 10:54 53.60768 9.94218 1995 ft 173 kts 234°
2026-02-17 10:55 53.59064 9.90683 2926 ft 211 kts 234°
2026-02-17 10:55 53.58129 9.88756 3768 ft 213 kts 234°
2026-02-17 10:55 53.57142 9.86869 4688 ft 219 kts 224°
2026-02-17 10:55 53.55699 9.85945 5484 ft 235 kts 187°
2026-02-17 10:56 53.53985 9.86358 5950 ft 266 kts 162°
2026-02-17 10:56 53.52214 9.87553 6638 ft 279 kts 161°
2026-02-17 10:56 53.50377 9.88680 7551 ft 284 kts 163°
2026-02-17 10:56 53.48492 9.89754 8517 ft 288 kts 164°
2026-02-17 10:57 53.46580 9.90807 9494 ft 292 kts 165°
2026-02-17 10:57 53.44619 9.91886 10168 ft 306 kts 164°
2026-02-17 10:57 53.42520 9.93045 10557 ft 327 kts 164°
2026-02-17 10:57 53.40335 9.94272 11312 ft 335 kts 163°
2026-02-17 10:58 53.38113 9.95538 12177 ft 339 kts 163°
2026-02-17 10:58 53.35867 9.96828 13047 ft 343 kts 163°
2026-02-17 10:58 53.33624 9.98118 13861 ft 347 kts 163°
2026-02-17 10:59 53.29009 10.00763 15413 ft 354 kts 163°
2026-02-17 10:59 53.26664 10.02100 16186 ft 358 kts 163°
2026-02-17 10:59 53.24294 10.03451 16954 ft 362 kts 163°
2026-02-17 10:59 53.21898 10.04816 17727 ft 366 kts 163°
2026-02-17 11:00 53.19476 10.06192 18433 ft 369 kts 163°
2026-02-17 11:00 53.17038 10.07575 19101 ft 372 kts 163°
2026-02-17 11:00 53.14572 10.08969 19779 ft 376 kts 163°
2026-02-17 11:00 53.12089 10.10376 20465 ft 379 kts 163°
2026-02-17 11:01 53.09578 10.11799 21154 ft 382 kts 163°
2026-02-17 11:01 53.07055 10.13226 21843 ft 385 kts 164°
2026-02-17 11:01 53.04502 10.14663 22522 ft 389 kts 164°
2026-02-17 11:01 53.01928 10.16112 23195 ft 392 kts 164°
2026-02-17 11:02 52.99332 10.17573 23738 ft 396 kts 164°
2026-02-17 11:02 52.96700 10.19053 24168 ft 402 kts 163°
2026-02-17 11:02 52.94035 10.20554 24610 ft 408 kts 163°
2026-02-17 11:03 52.88598 10.23610 25531 ft 417 kts 164°
2026-02-17 11:03 52.85835 10.25161 25986 ft 421 kts 164°
2026-02-17 11:03 52.83049 10.26725 26431 ft 426 kts 164°
2026-02-17 11:03 52.80227 10.28302 26848 ft 430 kts 164°
2026-02-17 11:04 52.77378 10.29889 27260 ft 435 kts 164°
2026-02-17 11:04 52.74494 10.31494 27682 ft 439 kts 164°
2026-02-17 11:04 52.71585 10.33110 28101 ft 444 kts 164°
2026-02-17 11:04 52.68646 10.34744 28514 ft 448 kts 164°
2026-02-17 11:05 52.65681 10.36392 28921 ft 452 kts 164°
2026-02-17 11:05 52.62688 10.38052 29321 ft 456 kts 164°
2026-02-17 11:05 52.59665 10.39724 29716 ft 460 kts 164°
2026-02-17 11:05 52.56618 10.41407 30039 ft 464 kts 164°
2026-02-17 11:06 52.53543 10.43103 30302 ft 468 kts 165°
2026-02-17 11:06 52.50441 10.44814 30555 ft 473 kts 165°
2026-02-17 11:06 52.47310 10.46542 30844 ft 476 kts 165°
2026-02-17 11:07 52.40991 10.50015 31561 ft 479 kts 164°
2026-02-17 11:07 52.37828 10.51743 31995 ft 479 kts 165°
2026-02-17 11:07 52.34669 10.53465 32396 ft 479 kts 165°
2026-02-17 11:07 52.31503 10.55189 32788 ft 480 kts 165°
2026-02-17 11:08 52.28332 10.56916 33140 ft 481 kts 165°
2026-02-17 11:08 52.25148 10.58647 33478 ft 483 kts 165°
2026-02-17 11:08 52.21959 10.60384 33827 ft 484 kts 165°
2026-02-17 11:08 52.18764 10.62121 34137 ft 485 kts 165°
2026-02-17 11:09 52.15567 10.63859 34368 ft 485 kts 165°
2026-02-17 11:09 52.12367 10.65596 34598 ft 485 kts 165°
2026-02-17 11:09 52.09159 10.67331 34700 ft 486 kts 165°
2026-02-17 11:09 52.05954 10.69060 34718 ft 486 kts 165°
2026-02-17 11:10 51.99536 10.72505 34716 ft 487 kts 165°
2026-02-17 11:11 51.89881 10.77680 34743 ft 488 kts 165°
2026-02-17 11:11 51.86657 10.79402 35091 ft 488 kts 165°
2026-02-17 11:11 51.83437 10.81122 35421 ft 487 kts 165°
2026-02-17 11:11 51.80218 10.82841 35733 ft 487 kts 165°
2026-02-17 11:12 51.77000 10.84554 35997 ft 488 kts 165°
2026-02-17 11:12 51.73771 10.86265 36245 ft 488 kts 165°
2026-02-17 11:12 51.70541 10.87972 36501 ft 488 kts 166°
2026-02-17 11:12 51.67248 10.89223 36673 ft 484 kts 176°
2026-02-17 11:13 51.63925 10.89585 36726 ft 475 kts 186°
2026-02-17 11:13 51.57344 10.89228 36722 ft 473 kts 187°
2026-02-17 11:14 51.50761 10.88971 36725 ft 474 kts 186°
2026-02-17 11:14 51.44163 10.88728 36725 ft 474 kts 186°
2026-02-17 11:15 51.34274 10.88311 36734 ft 474 kts 186°
2026-02-17 11:15 51.27676 10.88048 36720 ft 474 kts 187°
2026-02-17 11:16 51.21085 10.87780 36728 ft 474 kts 187°
2026-02-17 11:16 51.14490 10.87505 36737 ft 474 kts 187°
2026-02-17 11:17 51.07890 10.87231 36748 ft 475 kts 187°
2026-02-17 11:17 51.01283 10.86971 36727 ft 475 kts 187°
2026-02-17 11:18 50.94666 10.86710 36732 ft 476 kts 187°
2026-02-17 11:19 50.84786 10.86327 36753 ft 476 kts 186°
2026-02-17 11:19 50.78172 10.86068 36734 ft 475 kts 187°
2026-02-17 11:20 50.71554 10.85793 36736 ft 476 kts 187°
2026-02-17 11:20 50.64937 10.85518 36738 ft 476 kts 187°
2026-02-17 11:21 50.58315 10.85255 36748 ft 476 kts 187°
2026-02-17 11:21 50.51688 10.85002 36759 ft 476 kts 187°
2026-02-17 11:22 50.45056 10.84754 36768 ft 477 kts 187°
2026-02-17 11:22 50.38427 10.84505 36770 ft 476 kts 187°
2026-02-17 11:23 50.29598 10.84148 36750 ft 477 kts 187°
2026-02-17 11:23 50.22959 10.83883 36766 ft 478 kts 187°
2026-02-17 11:24 50.16311 10.83623 36778 ft 478 kts 187°
2026-02-17 11:24 50.09654 10.83370 36763 ft 479 kts 187°
2026-02-17 11:25 50.02985 10.83124 36773 ft 479 kts 187°
2026-02-17 11:25 49.96314 10.82867 36786 ft 480 kts 187°
2026-02-17 11:26 49.89641 10.82604 36772 ft 480 kts 187°
2026-02-17 11:27 49.79616 10.82219 36798 ft 481 kts 188°
2026-02-17 11:27 49.76352 10.81499 36792 ft 467 kts 204°
2026-02-17 11:27 49.73397 10.79648 36805 ft 452 kts 218°
2026-02-17 11:27 49.70894 10.76866 36798 ft 436 kts 232°
2026-02-17 11:28 49.68792 10.73547 36774 ft 432 kts 235°
2026-02-17 11:28 49.64623 10.66808 36803 ft 435 kts 235°
2026-02-17 11:29 49.60417 10.60165 36815 ft 438 kts 233°
2026-02-17 11:29 49.55907 10.53797 36824 ft 441 kts 230°
2026-02-17 11:30 49.51274 10.47577 36831 ft 442 kts 230°
2026-02-17 11:30 49.46675 10.41318 36811 ft 441 kts 231°
2026-02-17 11:31 49.39852 10.31843 36809 ft 441 kts 231°
2026-02-17 11:31 49.35296 10.25535 36787 ft 441 kts 231°
2026-02-17 11:32 49.30722 10.19247 36800 ft 442 kts 231°
2026-02-17 11:32 49.26139 10.12973 36778 ft 442 kts 232°
2026-02-17 11:33 49.21556 10.06709 36809 ft 442 kts 232°
2026-02-17 11:33 49.16983 10.00429 36820 ft 442 kts 232°
2026-02-17 11:34 49.12416 9.94156 36831 ft 442 kts 232°
2026-02-17 11:35 49.05546 9.84769 36813 ft 442 kts 232°
2026-02-17 11:35 49.00952 9.78532 36821 ft 442 kts 232°
2026-02-17 11:36 48.96355 9.72303 36829 ft 442 kts 232°
2026-02-17 11:36 48.91762 9.66071 36808 ft 442 kts 233°
2026-02-17 11:37 48.87169 9.59861 36828 ft 443 kts 233°
2026-02-17 11:37 48.82570 9.53644 36838 ft 443 kts 233°
2026-02-17 11:38 48.77961 9.47439 36850 ft 443 kts 233°
2026-02-17 11:38 48.73348 9.41262 36850 ft 442 kts 233°
2026-02-17 11:39 48.66449 9.32055 36849 ft 443 kts 233°
2026-02-17 11:39 48.61432 9.26330 36855 ft 464 kts 219°
2026-02-17 11:40 48.58455 9.24407 36855 ft 480 kts 207°
2026-02-17 11:40 48.55233 9.22985 36852 ft 483 kts 206°
2026-02-17 11:40 48.48770 9.20164 36864 ft 484 kts 206°
2026-02-17 11:41 48.42309 9.17324 36863 ft 484 kts 206°
2026-02-17 11:41 48.35845 9.14471 36875 ft 484 kts 206°
2026-02-17 11:42 48.29382 9.11638 36876 ft 484 kts 206°
2026-02-17 11:43 48.19664 9.07401 36872 ft 485 kts 207°
2026-02-17 11:43 48.13171 9.04581 36876 ft 486 kts 206°
2026-02-17 11:44 48.06675 9.01770 36854 ft 486 kts 207°
2026-02-17 11:44 48.00167 8.98957 36863 ft 487 kts 207°
2026-02-17 11:45 47.93645 8.96149 36873 ft 488 kts 207°
2026-02-17 11:45 47.87118 8.93343 36857 ft 489 kts 207°
2026-02-17 11:46 47.80619 8.90554 36865 ft 490 kts 207°
2026-02-17 11:46 47.74103 8.87634 36886 ft 487 kts 210°
2026-02-17 11:47 47.64496 8.82780 36922 ft 488 kts 212°
2026-02-17 11:47 47.58026 8.79494 36948 ft 493 kts 211°
2026-02-17 11:48 47.51515 8.76306 36959 ft 493 kts 211°
2026-02-17 11:48 47.45002 8.73153 36926 ft 492 kts 211°
2026-02-17 11:49 47.41753 8.71571 36777 ft 493 kts 211°
2026-02-17 11:49 47.38495 8.69980 36513 ft 494 kts 212°
2026-02-17 11:49 47.35231 8.68383 36249 ft 495 kts 212°
2026-02-17 11:49 47.31955 8.66777 36006 ft 497 kts 212°
2026-02-17 11:50 47.28668 8.65169 35755 ft 499 kts 212°
2026-02-17 11:50 47.25366 8.63559 35484 ft 501 kts 212°
2026-02-17 11:50 47.22054 8.61950 35237 ft 501 kts 212°
2026-02-17 11:51 47.15418 8.58746 34749 ft 502 kts 212°
2026-02-17 11:51 47.12097 8.57153 34507 ft 502 kts 213°
2026-02-17 11:51 47.08781 8.55561 34126 ft 501 kts 213°
2026-02-17 11:51 47.05370 8.54203 33532 ft 518 kts 203°
2026-02-17 11:52 47.01729 8.53664 32986 ft 535 kts 191°
2026-02-17 11:52 46.97969 8.54023 32410 ft 544 kts 182°
2026-02-17 11:52 46.94204 8.54597 31845 ft 544 kts 182°
2026-02-17 11:52 46.90443 8.55163 31267 ft 543 kts 182°
2026-02-17 11:53 46.86737 8.55706 30730 ft 542 kts 182°
2026-02-17 11:53 46.82934 8.56251 30142 ft 541 kts 183°
2026-02-17 11:53 46.79199 8.56782 29555 ft 539 kts 183°
2026-02-17 11:53 46.75523 8.57300 29023 ft 537 kts 183°
2026-02-17 11:54 46.71816 8.57824 28513 ft 531 kts 183°
2026-02-17 11:54 46.68163 8.58349 27973 ft 524 kts 182°
2026-02-17 11:54 46.64563 8.58870 27451 ft 517 kts 182°
2026-02-17 11:55 46.57441 8.59889 26544 ft 508 kts 182°
2026-02-17 11:55 46.53942 8.60390 26025 ft 501 kts 182°
2026-02-17 11:55 46.50502 8.60883 25514 ft 494 kts 183°
2026-02-17 11:55 46.47137 8.61030 25006 ft 474 kts 194°
2026-02-17 11:56 46.43951 8.60369 24514 ft 452 kts 206°
2026-02-17 11:56 46.41030 8.59038 24012 ft 428 kts 216°
2026-02-17 11:56 46.38452 8.57216 23571 ft 399 kts 225°
2026-02-17 11:56 46.36146 8.55166 23118 ft 384 kts 227°
2026-02-17 11:57 46.33880 8.53133 22691 ft 383 kts 226°
2026-02-17 11:57 46.31633 8.51119 22260 ft 376 kts 226°
2026-02-17 11:57 46.29330 8.49258 21809 ft 387 kts 217°
2026-02-17 11:57 46.26723 8.48049 21346 ft 402 kts 201°
2026-02-17 11:58 46.23890 8.47711 20832 ft 416 kts 186°
2026-02-17 11:58 46.20991 8.48101 20357 ft 418 kts 181°
2026-02-17 11:58 46.18100 8.48538 19867 ft 418 kts 180°
2026-02-17 11:59 46.12349 8.49392 18920 ft 412 kts 177°
2026-02-17 11:59 46.09559 8.50326 18477 ft 411 kts 164°
2026-02-17 11:59 46.06907 8.51746 18044 ft 404 kts 162°
2026-02-17 11:59 46.04299 8.53160 17571 ft 397 kts 162°
2026-02-17 12:00 46.01742 8.54541 17195 ft 387 kts 162°
2026-02-17 12:00 45.99249 8.55881 16796 ft 379 kts 162°
2026-02-17 12:00 45.96802 8.57192 16424 ft 373 kts 162°
2026-02-17 12:00 45.94401 8.58473 16036 ft 372 kts 163°
2026-02-17 12:01 45.91984 8.59764 15671 ft 370 kts 162°
2026-02-17 12:01 45.89656 8.61334 15343 ft 370 kts 150°
2026-02-17 12:01 45.87587 8.63481 15035 ft 367 kts 141°
2026-02-17 12:01 45.85611 8.65779 14740 ft 362 kts 141°
2026-02-17 12:02 45.83664 8.68040 14267 ft 360 kts 141°
2026-02-17 12:02 45.81743 8.70264 13995 ft 351 kts 140°
2026-02-17 12:02 45.79849 8.72451 13548 ft 348 kts 140°
2026-02-17 12:03 45.76080 8.76642 12766 ft 338 kts 149°
2026-02-17 12:03 45.74044 8.78247 12422 ft 331 kts 153°
2026-02-17 12:03 45.72034 8.79788 12079 ft 325 kts 153°
2026-02-17 12:03 45.70063 8.81304 11757 ft 319 kts 153°
2026-02-17 12:04 45.68127 8.82792 11425 ft 313 kts 153°
2026-02-17 12:04 45.66202 8.84270 11107 ft 306 kts 153°
2026-02-17 12:04 45.64370 8.85677 10784 ft 301 kts 153°
2026-02-17 12:04 45.62535 8.87064 10495 ft 295 kts 156°
2026-02-17 12:05 45.60624 8.88002 10240 ft 287 kts 170°
2026-02-17 12:05 45.58673 8.88530 9993 ft 284 kts 172°
2026-02-17 12:05 45.56741 8.89049 9772 ft 281 kts 171°
2026-02-17 12:05 45.54821 8.89568 9594 ft 281 kts 171°
2026-02-17 12:06 45.52907 8.90089 9282 ft 278 kts 171°
2026-02-17 12:06 45.51013 8.90605 8955 ft 276 kts 171°
2026-02-17 12:06 45.49142 8.91113 8701 ft 270 kts 171°
2026-02-17 12:07 45.45530 8.92097 7978 ft 261 kts 171°
2026-02-17 12:07 45.43755 8.92582 7527 ft 257 kts 171°
2026-02-17 12:07 45.42006 8.93048 6975 ft 254 kts 174°
2026-02-17 12:07 45.40297 8.92819 6425 ft 245 kts 205°
2026-02-17 12:08 45.38946 8.91466 5896 ft 236 kts 234°
2026-02-17 12:08 45.38235 8.89433 5344 ft 229 kts 259°
2026-02-17 12:08 45.37942 8.87257 4980 ft 220 kts 261°
2026-02-17 12:08 45.37662 8.85205 4855 ft 202 kts 261°
2026-02-17 12:09 45.37401 8.83302 4788 ft 192 kts 262°
2026-02-17 12:09 45.37466 8.81449 4712 ft 190 kts 291°
2026-02-17 12:09 45.38281 8.80003 4541 ft 192 kts 326°
2026-02-17 12:09 45.39583 8.79639 4337 ft 194 kts 357°
2026-02-17 12:10 45.40903 8.79469 4142 ft 188 kts 345°
2026-02-17 12:10 45.41749 8.79224 4004 ft 186 kts 345°
2026-02-17 12:10 45.43011 8.78864 3823 ft 184 kts 345°
2026-02-17 12:11 45.45538 8.78164 3603 ft 185 kts 348°
2026-02-17 12:11 45.46789 8.77820 3431 ft 181 kts 347°
2026-02-17 12:11 45.48009 8.77485 3278 ft 176 kts 348°
2026-02-17 12:11 45.49207 8.77156 3181 ft 175 kts 347°
2026-02-17 12:12 45.50393 8.76830 3022 ft 174 kts 348°
2026-02-17 12:12 45.51572 8.76506 2759 ft 169 kts 348°
2026-02-17 12:12 45.52674 8.76203 2546 ft 152 kts 348°
2026-02-17 12:12 45.53663 8.75930 2355 ft 139 kts 349°
2026-02-17 12:13 45.54589 8.75675 2152 ft 133 kts 349°
2026-02-17 12:13 45.55483 8.75429 1977 ft 130 kts 349°
2026-02-17 12:13 45.56375 8.75187 1809 ft 131 kts 349°
2026-02-17 12:13 45.57270 8.74937 1645 ft 131 kts 349°
2026-02-17 12:14 45.58171 8.74687 1407 ft 132 kts 349°
2026-02-17 12:14 45.59066 8.74439 1220 ft 132 kts 349°
2026-02-17 12:14 45.59962 8.74195 1046 ft 130 kts 350°
2026-02-17 12:15 45.61739 8.73703 763 ft 128 kts 351°
2026-02-17 12:15 45.62550 8.73483 747 ft 104 kts 349°
2026-02-17 12:15 45.63160 8.73313 744 ft 77 kts 349°
2026-02-17 12:15 45.63518 8.73211 746 ft 33 kts 345°
2026-02-17 12:16 45.63711 8.73076 749 ft 30 kts 321°
2026-02-17 12:16 45.63814 8.72917 750 ft 13 kts 304°
2026-02-17 12:16 45.63864 8.72810 751 ft 13 kts 304°
2026-02-17 12:16 45.63915 8.72704 752 ft 13 kts 304°
2026-02-17 12:17 45.63969 8.72592 748 ft 15 kts 308°
2026-02-17 12:17 45.64069 8.72525 751 ft 17 kts 347°
2026-02-17 12:17 45.64188 8.72491 750 ft 18 kts 348°
2026-02-17 12:17 45.64310 8.72456 752 ft 18 kts 348°
2026-02-17 12:18 45.64401 8.72430 749 ft 3 kts 349°
2026-02-17 12:18 45.64402 8.72430 752 ft 0 kts 349°
2026-02-17 12:19 45.64440 8.72376 752 ft 8 kts 271°
2026-02-17 12:19 45.64450 8.72303 749 ft 8 kts 334°
2026-02-17 12:19 45.64502 8.72287 752 ft 5 kts 349°
2026-02-17 12:19 45.64525 8.72280 748 ft 1 kts 349°
2026-02-17 12:20 45.64527 8.72280 752 ft 0 kts 349°